Wind_Speed
16 14 12 10 9 6 6 4 2 3 3 1 2 4 2 1 0 1 3 2 1 2 2 4 6 6 2 2 6 5 7 4 3 1 3 6 17 24 22 23 26 25 24 23 23 23 22 23 22 21 20 18 17 16 16 16 15 14 13 12 11 10 10 9 9 9 9 7 6 6 6 7 8 9 9 8 7 6 6 6 6 7 7 8 9 9 10 11 13 13 10 9 10 10 10 11 9
13 13 11 8 7 4 2 2 3 2 2 1 3 4 2 1 1 0 2 3 2 3 3 5 6 4 1 0 5 5 7 8 8 6 6 13 21 20 21 25 26 25 24 23 24 23 21 23 22 21 20 18 17 16 15 15 14 13 12 12 11 10 9 9 9 8 8 6 6 5 5 7 9 10 9 8 6 5 5 5 6 7 7 8 9 9 11 12 14 13 10 10 11 11 10 11 10
13 12 10 7 5 3 1 2 3 1 0 1 4 4 2 1 2 3 3 4 4 5 6 7 5 2 2 4 4 3 5 6 9 9 8 17 20 18 23 25 25 25 23 23 24 22 22 24 23 21 20 17 16 15 14 13 13 13 11 11 9 9 9 9 8 7 7 6 5 5 6 7 8 9 9 9 7 6 5 5 6 7 7 8 10 10 12 13 15 13 10 12 12 10 10 10 11
13 10 8 5 2 2 2 3 2 2 2 2 2 5 2 2 2 2 2 4 4 6 7 7 5 1 2 5 5 4 6 5 7 8 9 15 17 21 25 25 25 23 23 23 23 23 22 24 23 22 20 17 16 14 14 13 12 12 11 10 8 8 8 9 8 7 6 5 4 5 6 6 6 7 8 8 8 6 5 5 6 7 8 9 10 11 12 13 14 11 10 11 10 10 10 10 10
10 7 5 3 0 1 3 2 1 2 4 4 2 5 4 3 2 0 2 3 3 5 7 6 4 1 2 2 2 2 5 5 7 8 11 14 18 25 26 25 24 22 22 22 23 22 23 25 23 21 19 17 15 14 13 13 12 11 10 9 8 8 9 9 8 7 5 3 4 4 5 6 6 6 7 8 8 7 5 5 7 8 9 10 10 11 11 11 12 9 9 9 8 9 10 10 9
6 5 6 5 1 1 3 1 2 3 5 5 3 4 4 4 1 3 4 5 4 4 7 5 3 4 3 3 3 4 4 3 6 9 12 17 22 26 26 25 23 22 22 22 22 21 24 25 22 20 19 17 15 14 13 13 12 11 10 9 8 8 9 9 7 5 4 3 3 4 4 5 4 5 6 7 7 7 6 5 7 8 9 10 10 10 10 10 10 8 8 8 8 8 9 9 9
3 3 4 4 2 2 2 3 3 4 4 5 5 5 5 3 1 5 6 6 5 4 6 4 3 6 4 3 4 6 5 3 5 8 13 21 26 26 26 24 22 22 22 21 20 20 24 25 22 20 19 17 15 14 13 12 12 11 10 9 8 8 9 8 6 4 3 3 3 4 4 3 3 4 6 7 7 7 6 5 7 8 9 9 9 9 9 9 8 8 9 8 8 9 9 10 9
4 3 2 3 2 3 1 4 4 5 4 4 5 5 5 2 1 5 8 7 5 6 6 5 5 4 2 2 3 6 6 4 5 10 18 25 27 26 24 23 22 22 21 20 19 20 24 24 21 19 18 16 15 14 13 12 11 10 10 9 8 8 9 7 5 3 2 2 2 3 3 3 3 4 5 6 6 6 6 6 7 8 8 9 8 9 9 9 7 6 8 9 9 9 9 10 10
5 4 2 3 2 1 1 5 5 6 5 5 5 4 4 1 2 5 8 7 5 7 8 7 6 3 5 4 5 7 6 5 8 15 21 26 27 25 22 22 22 21 21 19 19 21 23 22 19 17 17 15 15 14 12 12 11 10 10 9 8 8 8 5 3 2 2 2 2 2 2 2 3 4 5 6 6 6 5 6 7 8 9 9 9 9 10 9 8 7 6 8 8 7 7 8 8
4 3 2 3 2 2 4 5 5 5 6 6 5 5 4 1 2 5 7 7 5 8 9 7 4 3 6 6 6 6 6 7 13 18 22 25 26 23 21 21 21 21 20 19 19 20 21 19 18 17 16 15 14 14 12 11 10 9 9 8 8 8 6 3 1 0 0 1 1 1 2 3 3 5 6 7 7 6 6 7 8 9 10 10 10 10 10 10 10 8 7 7 7 7 7 7 7
3 1 3 2 1 4 5 6 6 6 6 6 6 6 4 1 2 6 8 8 5 7 8 6 5 5 6 6 5 6 8 11 15 20 22 24 24 21 20 20 20 20 20 19 19 19 20 19 17 16 16 15 14 13 12 10 9 9 7 7 7 7 4 2 1 1 0 1 0 2 3 4 4 6 7 7 7 7 7 8 9 10 10 10 10 10 11 11 10 9 8 8 8 8 9 8 8
2 1 3 2 5 5 5 6 6 6 7 6 6 6 3 1 1 6 8 9 6 7 8 5 5 6 6 5 5 8 11 13 16 21 23 23 21 20 20 19 19 19 19 20 19 19 19 19 17 15 15 16 13 12 11 10 9 8 7 7 6 5 3 2 1 0 1 0 1 3 4 5 6 7 8 7 7 8 8 8 9 9 10 10 10 10 11 11 10 9 9 9 9 9 10 10 10
3 4 3 4 5 5 5 6 6 5 6 6 5 4 2 2 2 5 6 7 7 9 7 3 5 5 5 6 6 9 11 14 18 21 23 21 20 19 19 18 19 18 19 19 19 19 18 18 16 15 14 14 13 12 11 10 9 9 9 7 6 4 3 2 1 1 0 2 3 5 5 6 7 9 9 8 9 9 8 8 9 9 9 9 10 10 10 10 10 10 10 10 11 11 12 12 11
3 3 4 3 4 4 6 5 6 6 5 6 5 3 1 1 3 3 4 8 6 5 5 4 4 3 5 7 5 8 11 16 20 22 22 20 19 18 18 18 18 18 18 18 18 18 18 17 16 15 14 13 13 11 10 11 10 9 9 7 5 4 3 2 1 1 2 3 4 5 6 6 9 10 10 10 10 9 9 9 10 9 8 9 10 10 9 9 9 10 10 11 12 12 12 12 12
3 3 3 2 4 5 6 5 6 7 6 6 5 3 1 2 1 2 2 5 5 4 5 4 2 1 5 7 6 9 14 20 21 22 21 19 18 18 17 17 17 17 17 17 17 17 17 16 15 15 14 13 12 10 9 10 9 9 7 6 5 4 3 2 2 3 4 4 5 6 6 8 10 10 10 10 10 10 10 9 10 9 9 9 10 9 10 10 10 10 11 11 11 12 12 11 11
3 3 4 2 5 5 6 6 7 7 6 6 5 2 2 4 1 2 3 1 5 5 3 4 2 2 2 6 10 15 19 23 22 22 21 19 18 17 17 16 16 17 16 16 15 15 15 16 15 14 14 12 11 10 9 9 8 7 6 5 4 3 3 3 4 4 5 6 6 7 8 8 8 9 10 9 10 10 9 9 10 10 10 10 10 10 11 11 11 11 10 11 11 11 11 11 12
2 4 2 4 6 7 7 7 7 6 6 5 4 1 2 4 1 2 2 1 5 6 4 3 2 1 3 9 16 21 22 23 22 22 22 19 18 17 16 15 16 16 15 15 14 14 14 14 15 14 13 12 11 9 9 9 7 6 6 4 3 3 4 4 5 5 5 6 7 8 8 8 7 7 8 8 8 9 9 10 10 10 10 10 11 11 11 10 10 10 10 11 11 11 12 11 12
3 3 2 5 6 7 6 8 7 4 5 5 2 1 1 3 3 3 3 3 5 6 4 4 3 4 10 15 19 21 22 23 23 22 22 20 18 17 16 15 15 15 15 14 13 13 13 13 14 13 13 12 11 9 9 9 7 6 6 5 4 5 5 5 5 5 5 6 8 8 7 7 7 7 7 7 8 8 8 9 9 9 10 10 11 11 11 11 11 11 12 12 12 12 12 10 10
3 3 3 6 7 6 4 6 4 4 5 4 2 2 1 3 5 3 4 5 6 5 4 4 5 8 12 16 19 21 22 22 22 22 21 20 18 18 16 15 14 14 14 14 13 13 12 12 14 13 13 13 11 9 8 9 8 7 7 7 6 6 6 5 5 6 6 6 7 7 7 6 7 7 7 7 7 7 8 9 10 11 11 12 12 11 11 12 12 12 14 14 12 11 9 8 8
2 2 3 7 7 5 4 4 2 2 2 2 3 3 3 4 5 4 4 5 6 5 5 5 7 10 13 16 19 20 21 21 21 21 21 19 18 17 16 16 15 14 14 13 13 13 12 12 14 13 13 13 11 9 8 8 8 7 7 6 6 6 6 6 6 6 6 6 7 7 6 6 6 6 7 7 7 6 7 8 9 10 10 11 11 10 8 10 11 10 12 12 9 8 7 7 8
2 2 4 7 7 5 5 4 1 0 1 1 3 4 5 6 5 4 5 5 5 5 6 7 7 12 14 15 18 20 20 20 20 19 19 18 17 17 16 15 15 14 14 13 13 13 13 13 14 14 13 12 11 9 9 8 8 7 6 6 6 5 5 5 6 6 6 6 6 7 6 6 6 5 5 6 5 5 5 5 6 7 7 7 8 8 7 8 9 8 9 10 9 8 8 9 9
3 2 4 6 6 6 6 4 1 2 2 2 3 4 6 8 6 6 7 5 4 4 6 7 7 11 15 15 17 18 18 18 18 18 18 17 17 16 15 15 14 14 13 13 13 13 14 14 14 13 13 12 11 9 8 8 8 7 6 6 5 5 5 5 5 5 5 6 6 6 6 5 5 4 3 3 4 4 5 5 6 6 7 7 7 8 8 8 9 9 9 10 9 9 10 10 10
3 1 3 7 7 7 8 4 2 4 4 4 3 3 7 9 7 7 8 5 2 4 7 7 7 11 14 16 16 16 16 16 16 17 17 17 17 16 15 15 14 14 13 13 13 14 14 14 13 13 12 12 11 9 8 8 8 7 6 5 5 5 5 5 5 5 5 5 6 6 5 5 4 3 2 3 3 4 5 6 6 6 7 7 8 8 8 9 9 9 10 10 10 11 11 11 11
4 4 6 9 8 8 9 5 3 4 4 3 3 4 7 7 6 8 10 6 3 6 8 7 9 12 14 16 15 14 15 15 15 16 16 16 16 15 15 14 14 14 13 13 13 14 14 14 13 12 11 11 11 10 9 8 7 6 6 5 5 5 5 5 5 5 5 6 6 5 5 4 3 2 2 2 3 4 5 6 6 6 7 8 8 8 8 9 10 10 10 11 11 11 11 11 11
3 7 9 10 10 9 8 6 4 5 4 3 4 5 6 3 4 6 9 7 6 8 10 9 10 13 13 14 14 14 14 15 15 15 15 15 15 15 14 13 13 14 14 14 13 13 14 14 13 12 11 11 10 10 9 7 7 6 6 5 5 5 5 5 5 6 6 5 5 5 4 4 3 2 2 3 3 4 5 5 6 6 7 8 8 8 9 10 10 11 11 11 11 12 12 12 12
2 10 11 11 11 9 7 5 4 5 3 4 6 5 4 3 3 4 7 8 8 10 11 12 12 13 13 12 13 13 13 14 15 15 15 14 14 15 14 13 13 13 14 14 13 12 13 14 13 13 11 11 10 9 8 7 6 6 6 5 5 5 5 5 6 6 6 5 4 3 3 3 3 2 2 3 3 4 5 5 6 6 7 7 8 9 9 10 11 11 11 12 12 13 13 12 13
8 12 12 12 9 6 4 2 2 5 3 5 6 4 4 4 2 2 7 10 10 11 13 13 13 14 13 12 12 12 13 15 15 15 15 14 14 15 14 14 13 13 13 14 13 12 13 13 13 12 11 10 10 9 8 7 6 6 5 5 5 5 5 6 6 6 5 5 3 3 3 3 3 3 3 3 4 5 5 5 6 7 7 7 8 9 10 10 11 11 12 12 13 14 13 13 13
11 12 11 7 2 2 2 3 4 4 4 5 5 4 5 5 2 2 8 11 11 12 13 13 13 13 13 13 12 11 12 15 15 15 15 15 14 14 15 14 14 13 13 14 13 12 13 13 12 12 12 11 10 8 7 7 6 6 6 5 6 5 6 6 6 6 5 5 3 3 3 2 3 3 3 4 5 5 5 6 6 6 7 8 9 9 10 10 10 11 12 13 13 13 13 14 15
12 9 8 2 6 2 4 5 5 3 3 5 5 3 5 6 3 5 9 11 11 13 13 13 13 12 12 12 11 10 11 14 15 15 16 16 14 15 15 15 14 13 13 13 13 12 12 13 12 12 12 11 11 9 7 7 6 6 6 6 6 5 6 6 6 6 5 4 4 3 3 3 3 3 3 4 5 6 5 6 6 6 7 8 9 9 10 10 10 12 12 14 15 15 16 18 19
9 5 6 3 6 3 5 4 5 3 3 6 5 1 3 6 6 7 9 11 11 12 12 13 11 10 12 12 11 10 11 13 14 15 15 15 14 15 15 15 14 13 12 12 13 13 12 12 11 11 12 11 11 10 8 7 6 6 6 5 5 5 6 6 6 5 4 4 4 3 3 3 3 3 4 5 5 6 6 6 6 6 7 8 9 8 9 10 11 12 13 15 16 17 19 19 19
5 3 4 3 2 3 5 4 5 2 3 7 5 0 2 6 7 7 8 11 12 11 12 12 11 11 11 11 11 10 11 13 14 15 15 15 14 14 15 14 14 13 12 12 13 13 13 12 11 11 11 11 11 10 9 7 6 6 5 5 5 5 5 6 5 5 4 4 3 3 3 4 3 3 4 5 6 6 6 6 6 6 8 8 8 8 9 10 10 11 13 14 15 17 19 18 17
3 2 2 1 1 4 6 4 2 1 4 8 5 1 3 6 8 8 8 10 11 10 11 12 12 12 11 11 11 10 11 13 15 15 15 16 14 13 14 14 15 14 12 13 13 13 13 13 12 11 11 12 11 10 9 7 6 6 5 5 4 4 5 5 5 4 4 3 3 3 3 4 4 3 4 5 6 6 6 7 7 7 8 8 7 7 8 9 10 11 12 13 15 16 18 19 19
1 3 1 2 3 2 4 4 2 2 4 8 6 3 2 5 8 8 9 10 11 9 10 12 12 12 12 11 10 9 10 12 14 15 16 16 15 13 14 14 15 14 13 12 13 13 14 13 13 12 11 11 11 10 9 8 7 6 5 5 5 5 5 5 5 4 4 4 3 3 3 3 4 4 5 5 6 6 7 7 7 8 8 7 7 7 8 9 10 12 13 13 14 15 18 19 19
2 4 3 3 5 4 1 4 3 1 2 5 7 5 2 6 9 8 9 10 11 10 10 12 11 11 12 10 10 10 10 11 12 15 17 16 14 14 13 14 14 14 13 13 13 13 13 13 13 12 11 11 11 10 10 9 8 7 6 6 5 5 5 5 5 4 4 4 4 3 3 3 4 4 5 5 5 6 7 7 8 8 8 7 7 7 8 9 10 12 14 14 14 14 15 17 18
5 5 5 4 5 4 3 3 2 1 4 3 5 5 1 6 9 8 10 11 11 10 9 11 11 11 11 10 10 10 10 11 12 14 17 16 14 14 13 13 14 14 13 13 13 12 12 12 12 12 12 11 11 10 10 9 8 7 7 6 5 5 6 5 5 4 4 4 3 3 3 4 4 4 4 5 6 6 7 7 7 8 8 7 7 7 8 10 11 13 15 15 15 14 14 16 18
7 7 6 7 6 4 4 5 4 4 5 3 3 4 2 6 8 8 10 11 11 10 9 9 10 11 11 10 11 11 11 11 12 14 16 16 15 15 14 13 13 13 13 12 12 12 12 12 12 12 12 12 11 11 11 10 9 8 7 7 6 6 6 6 5 5 4 4 3 3 3 4 4 4 5 6 7 8 8 7 7 7 7 6 7 7 8 10 13 14 15 16 16 16 16 16 16
8 7 7 7 6 4 4 4 3 4 6 2 1 5 3 4 8 9 9 11 11 11 11 10 10 11 11 12 12 12 12 11 13 15 16 16 16 15 14 13 13 13 13 13 13 13 12 13 12 12 13 13 12 12 12 12 10 9 8 7 7 6 6 5 5 6 5 4 4 3 3 3 4 5 6 7 8 8 8 7 6 6 6 6 7 8 9 11 13 13 14 14 16 17 18 16 15
8 7 6 6 5 3 3 3 2 2 5 2 2 6 3 4 7 8 9 11 11 11 11 11 12 12 11 13 14 13 11 10 12 15 16 17 17 16 15 13 14 14 14 14 13 13 12 12 13 12 13 14 13 13 13 12 11 9 7 6 6 6 6 6 6 5 5 5 4 4 4 4 5 6 7 8 8 7 6 5 5 5 5 6 7 9 10 12 13 13 13 14 14 16 17 16 15
7 5 5 5 2 3 0 2 0 2 4 3 5 7 0 5 5 7 8 9 9 10 11 10 12 12 12 13 14 13 12 11 12 14 16 18 18 17 16 14 14 15 15 15 14 13 13 12 12 12 13 14 14 14 13 12 11 9 7 4 3 4 4 4 4 4 5 5 5 4 4 4 6 6 7 7 6 5 4 4 4 4 5 6 8 9 10 12 13 13 13 14 15 15 16 15 13
6 5 5 3 3 5 1 3 2 5 4 4 8 7 2 5 4 5 7 8 7 9 10 10 10 11 12 13 13 13 13 13 14 14 15 18 19 18 17 16 15 16 16 15 15 14 13 13 13 13 13 14 15 15 14 12 10 8 7 4 3 3 2 2 4 4 5 5 4 5 4 4 5 5 5 5 4 3 3 4 4 5 5 6 8 9 11 12 13 12 12 13 15 15 17 16 12
5 5 5 5 5 7 5 3 6 6 3 3 7 7 3 5 5 5 6 7 8 9 10 11 10 11 12 13 14 14 14 14 14 14 15 16 19 19 18 17 17 17 17 16 16 15 14 14 14 14 14 14 14 15 14 12 10 9 7 6 5 4 4 4 5 6 7 6 6 5 3 2 3 4 4 4 3 3 4 4 4 5 6 6 7 9 11 12 11 10 11 13 14 15 16 15 11
5 2 2 6 7 7 7 6 6 4 3 2 4 6 1 5 5 5 6 7 8 9 10 11 11 11 12 12 13 14 15 14 12 12 13 15 18 19 19 19 18 18 17 17 16 16 15 14 15 16 15 15 14 14 14 13 10 9 9 8 7 6 6 7 7 7 7 7 6 3 1 1 2 4 3 4 3 3 4 4 5 6 6 6 7 9 10 11 9 8 11 13 13 13 13 13 11
3 4 4 6 7 7 7 6 5 3 2 1 2 6 2 3 4 4 7 8 9 10 11 12 11 11 12 12 12 13 14 14 12 13 14 15 18 19 19 20 20 19 18 17 16 16 16 15 16 17 16 15 15 14 14 14 12 11 10 9 8 7 7 7 8 7 6 5 3 1 2 2 1 3 4 3 3 3 3 4 6 6 6 7 8 9 9 9 8 8 10 11 11 11 10 10 10
2 5 5 7 7 8 7 6 5 2 4 3 3 4 5 1 4 4 6 7 8 10 12 12 12 12 13 13 13 13 14 15 14 14 15 17 20 20 20 21 21 19 19 18 17 16 17 16 16 17 16 15 15 14 14 15 14 11 11 10 8 7 6 6 7 7 6 4 3 3 3 2 1 2 4 4 3 4 4 5 6 7 7 7 8 8 7 7 7 7 8 9 9 9 9 8 8
3 5 7 8 8 8 7 6 4 2 4 4 2 1 5 2 5 5 5 6 8 10 13 14 13 14 14 14 15 15 15 15 15 14 16 19 21 21 21 21 21 21 20 19 18 17 17 17 17 17 17 16 16 15 15 15 15 12 11 10 9 7 5 5 6 7 6 5 5 4 4 3 1 1 3 5 4 4 5 5 6 6 6 6 6 5 4 5 6 6 7 8 8 8 8 7 6
5 8 10 9 8 7 5 6 4 2 4 4 1 2 5 2 3 5 4 4 4 6 10 13 14 15 14 14 15 16 15 14 15 15 16 19 21 22 22 21 21 21 20 19 18 17 17 18 18 18 17 16 16 16 16 15 15 13 12 11 10 8 7 5 5 5 5 5 5 5 4 3 2 0 1 4 6 5 4 4 5 5 5 5 4 4 3 4 5 6 7 8 8 7 6 7 6
8 10 10 8 7 5 4 4 3 4 5 2 1 2 5 3 1 2 2 1 1 1 4 9 14 15 15 14 14 15 15 14 14 15 15 19 21 22 22 22 21 21 20 19 18 18 18 18 18 18 18 16 16 17 17 16 15 14 13 12 12 11 9 7 6 6 6 6 6 5 4 2 2 1 1 2 3 3 3 3 4 4 4 3 3 3 4 4 5 5 6 7 7 7 6 6 6
7 7 6 6 5 4 5 5 4 5 4 1 1 2 4 3 1 3 3 3 1 1 2 5 12 15 14 13 13 14 15 15 15 15 15 17 19 21 22 22 22 21 20 20 20 19 18 18 18 19 18 16 16 17 17 16 15 15 14 13 13 12 11 9 7 7 6 7 7 5 3 2 2 2 2 2 1 2 3 3 4 3 3 3 2 4 4 5 5 5 5 5 6 7 6 5 6
5 6 5 5 5 4 5 5 4 5 3 1 1 1 3 2 2 4 4 4 3 2 2 2 8 13 14 14 13 13 13 15 15 15 15 14 15 20 22 22 22 22 22 21 21 20 19 18 18 18 18 17 17 16 16 16 16 15 15 14 13 12 11 10 8 7 7 8 7 5 5 4 3 3 2 1 2 3 3 3 3 2 2 1 2 3 4 4 4 4 5 5 6 6 5 5 6
7 6 4 4 4 4 5 4 3 4 3 2 1 2 3 2 2 3 5 6 4 3 2 2 4 9 13 14 13 13 13 14 14 14 15 14 15 19 22 22 22 22 23 23 22 21 20 19 19 18 18 17 17 17 16 16 17 16 15 14 13 12 12 11 10 9 9 8 7 7 6 4 4 3 2 1 3 3 3 3 2 1 2 2 2 4 4 4 5 4 4 5 6 5 4 4 5
5 2 4 5 4 4 4 3 3 3 2 2 2 2 3 0 3 3 4 5 4 3 3 4 4 6 10 12 12 13 13 13 13 14 15 15 18 21 22 23 23 23 24 24 23 22 21 20 20 19 18 17 17 17 16 16 17 16 15 15 13 12 11 11 11 10 9 8 9 8 6 5 4 2 1 1 3 3 3 3 1 1 1 2 4 5 4 4 5 5 5 5 5 4 4 4 5
3 1 5 5 3 3 4 3 3 4 3 2 3 2 1 1 2 2 1 3 4 3 4 5 6 6 8 10 11 12 12 12 13 14 15 16 20 23 23 23 24 24 24 25 24 23 22 21 20 20 19 18 17 18 18 17 16 15 15 15 14 13 12 11 10 10 10 10 9 8 6 6 5 3 1 2 2 2 2 1 2 3 2 3 5 5 5 4 4 5 5 5 5 4 4 4 5
1 4 6 1 3 6 6 2 2 5 5 2 2 2 1 2 2 3 3 4 5 4 4 5 6 7 8 8 9 11 11 12 13 13 14 16 19 22 24 24 24 24 24 25 25 24 24 22 21 21 20 19 18 18 18 18 16 15 15 16 15 14 13 12 11 11 12 12 10 8 7 6 5 4 3 2 1 2 2 1 3 3 4 4 5 5 5 4 4 5 5 5 5 4 4 4 4
3 4 1 2 1 5 5 3 3 5 5 3 2 1 1 2 3 4 3 3 5 5 4 5 5 7 7 7 8 9 11 11 12 13 14 15 17 21 24 24 24 24 25 25 25 25 24 23 23 22 22 21 19 18 18 17 16 16 16 16 16 15 15 14 12 11 12 12 11 10 9 8 7 5 4 2 2 2 2 1 3 4 4 5 5 6 5 5 5 6 6 6 6 5 4 4 4
8 6 4 2 4 3 3 3 4 4 4 3 4 1 1 1 3 3 2 3 5 6 4 4 4 5 5 5 7 9 9 10 11 12 12 13 16 20 23 24 25 26 26 26 26 25 24 24 23 23 22 22 20 19 18 17 17 16 16 16 16 16 15 14 12 11 11 13 13 11 10 9 8 6 4 3 3 2 2 2 3 5 5 5 6 6 5 5 6 6 6 6 6 5 4 4 5
7 6 4 4 3 2 3 3 4 4 3 2 3 2 1 2 3 1 2 4 5 6 5 3 3 3 3 4 6 8 8 8 9 10 11 12 15 19 23 24 25 25 26 26 26 26 26 25 23 23 23 22 20 19 18 17 17 16 15 16 16 16 15 14 13 12 12 13 13 12 11 10 9 7 6 5 4 3 3 3 4 4 5 6 6 6 5 5 5 5 5 6 6 5 5 5 5
6 7 7 6 4 3 3 3 3 4 3 2 2 2 2 3 4 1 3 4 4 6 6 4 4 3 4 4 5 6 7 8 8 9 10 11 14 18 21 23 24 24 24 25 26 26 26 25 23 23 24 23 21 19 18 17 17 16 16 16 16 16 15 15 15 14 13 14 14 13 11 10 9 8 7 6 5 4 4 4 4 5 5 6 6 6 6 5 5 6 6 7 7 6 5 5 5
5 6 6 6 5 3 3 4 3 2 4 3 1 3 2 4 3 1 4 4 4 6 6 5 5 5 4 4 4 5 5 6 7 8 8 9 12 15 18 21 23 24 23 24 24 25 25 25 24 23 24 23 21 18 18 18 17 16 16 16 15 15 15 16 16 15 14 14 14 13 12 10 9 9 8 7 6 5 5 4 5 5 6 5 5 5 6 6 6 7 7 7 7 6 6 5 5
Wind_Direction
140 145 148 156 160 172 190 215 246 211 238 259 79 87 78 7 46 172 130 132 147 111 80 112 134 132 158 164 139 81 51 104 65 99 116 102 143 148 149 147 146 148 149 150 153 153 151 149 147 151 151 150 150 152 151 146 144 144 145 143 140 138 141 140 136 142 143 139 129 114 96 76 64 57 51 52 50 51 57 48 31 26 25 22 23 22 22 26 27 24 9 352 358 7 7 7 10
143 146 152 161 168 197 188 204 261 214 225 220 75 68 101 161 234 308 86 120 125 109 119 127 120 105 300 342 136 110 67 60 55 76 92 125 143 146 148 148 148 149 149 151 153 153 155 153 150 152 151 151 152 153 148 142 144 143 143 142 143 143 145 144 144 147 143 137 126 111 90 74 63 55 48 46 42 42 45 36 22 22 19 15 17 15 18 24 29 23 3 357 2 4 8 2 3
145 144 154 165 185 230 265 222 263 305 256 45 80 87 144 144 11 360 41 75 100 122 129 125 112 77 214 146 141 129 92 78 82 85 108 137 144 147 149 149 149 149 148 152 155 155 156 155 153 153 151 151 152 150 144 143 146 144 142 142 149 153 150 149 150 148 142 135 125 105 87 74 59 49 42 39 34 28 27 26 23 20 11 10 12 12 17 21 27 20 356 0 0 359 6 3 4
145 146 159 170 202 228 243 229 282 327 39 29 77 87 74 43 19 351 62 77 99 129 133 135 127 354 266 136 120 97 95 111 101 93 129 147 147 148 150 150 149 149 150 152 156 156 158 159 156 154 152 152 152 149 146 144 144 146 145 144 153 156 154 154 150 145 141 134 116 95 81 66 51 37 28 29 27 18 11 18 20 12 4 6 9 10 16 22 27 11 351 0 357 353 358 1 6
148 157 181 199 242 219 258 253 320 347 29 3 23 59 30 27 41 207 129 108 115 142 146 150 130 105 276 74 91 108 100 112 109 114 139 145 147 149 150 150 150 151 152 153 156 157 160 161 159 157 155 153 151 148 148 144 144 148 146 147 151 154 157 155 149 144 139 116 90 83 70 56 43 27 15 13 16 10 1 11 11 3 360 3 6 8 14 24 26 2 347 0 357 351 351 357 3
158 182 217 238 288 288 271 274 37 52 41 359 358 23 18 22 36 183 151 123 132 150 155 157 138 156 154 84 60 49 71 99 119 129 137 141 148 151 149 150 151 153 155 156 156 157 161 162 160 160 158 154 150 148 150 146 145 149 146 149 149 153 158 155 152 146 127 96 75 77 64 54 37 18 11 3 4 1 355 3 2 357 357 360 3 7 11 21 25 359 347 356 352 351 349 354 357
194 214 224 240 240 241 283 50 45 59 48 9 4 356 16 20 291 187 162 144 148 149 164 170 176 167 126 130 112 65 63 61 115 133 137 141 148 151 150 151 152 152 154 156 155 155 160 163 162 162 159 154 152 152 153 148 146 149 148 152 154 155 160 157 152 139 120 105 81 74 65 54 29 9 2 356 352 351 355 359 354 355 354 355 1 6 5 13 24 3 348 353 353 352 347 348 346
254 246 232 254 224 202 304 53 53 50 53 36 28 358 11 22 209 189 174 157 155 153 164 168 191 186 105 182 147 94 86 70 108 126 136 141 147 152 151 152 151 151 153 155 154 156 161 165 165 163 160 157 157 156 154 150 147 151 152 156 160 160 161 153 140 130 121 112 81 67 58 33 11 356 348 344 340 345 355 354 350 351 349 351 358 2 360 2 13 4 350 350 351 346 338 337 337
252 249 247 256 258 147 42 57 59 48 50 51 47 21 26 91 180 193 174 147 143 150 158 165 190 187 129 150 114 104 98 98 122 128 139 142 147 152 152 153 151 151 152 153 153 155 159 163 167 165 163 160 160 159 155 156 153 156 159 163 165 163 162 152 142 136 126 128 100 56 31 360 349 338 333 331 332 344 350 347 344 345 347 351 354 355 355 354 357 357 347 341 337 333 328 327 331
249 244 273 263 275 58 56 54 62 56 48 56 54 27 34 91 173 174 156 134 143 147 148 161 179 159 134 126 102 106 106 125 132 134 143 143 147 152 152 154 151 152 152 152 152 152 154 159 166 168 168 164 162 161 159 162 160 162 166 171 170 168 169 166 181 189 298 168 118 20 341 332 333 325 322 328 337 346 344 342 344 346 350 350 348 350 353 350 351 351 346 341 334 331 330 328 331
275 217 265 283 15 43 42 47 61 64 48 58 62 28 24 28 137 139 134 131 146 140 140 164 167 150 132 113 102 109 119 136 137 139 145 145 149 151 150 152 151 153 152 151 150 150 153 159 165 169 174 170 167 168 165 171 170 168 176 182 181 181 189 211 269 301 276 181 83 322 315 322 320 319 325 335 343 342 340 345 348 347 345 345 344 347 352 350 350 351 346 343 339 335 333 331 331
317 312 273 19 43 38 36 40 51 69 56 45 51 30 9 301 129 132 136 138 148 145 151 177 154 148 145 122 113 122 131 139 138 143 146 146 149 149 149 150 150 152 151 150 149 150 154 158 163 170 177 172 172 179 173 182 186 181 191 198 195 195 214 238 253 183 137 356 327 308 307 310 313 320 327 333 335 334 339 346 346 342 340 343 347 349 352 351 350 350 344 342 340 337 335 331 330
330 331 315 42 44 36 40 39 39 63 63 50 61 35 344 303 49 110 133 135 151 155 151 159 145 170 154 117 123 133 135 140 142 145 147 148 149 148 148 148 150 150 151 151 150 152 155 158 163 168 175 172 175 184 178 187 196 196 205 206 202 206 222 214 187 145 336 317 302 299 302 305 314 322 324 324 325 329 336 340 337 338 342 347 351 351 351 349 346 344 342 342 340 336 336 335 334
339 341 326 38 57 43 32 34 36 41 53 57 79 60 6 29 43 84 131 137 146 140 124 141 165 200 146 125 139 139 136 144 145 146 148 148 148 148 147 148 149 149 151 153 153 154 157 160 163 165 171 172 173 180 182 190 194 197 205 201 202 205 197 197 210 276 286 288 286 293 299 306 317 320 315 315 319 324 331 333 335 340 349 349 348 349 346 346 346 345 344 341 340 340 341 342 341
333 328 292 20 61 51 31 26 30 35 39 47 75 73 80 84 78 103 100 131 125 90 113 159 197 249 162 159 154 138 141 147 147 146 147 146 146 148 148 149 149 151 154 155 155 156 160 163 163 165 169 172 173 176 181 193 194 189 194 191 193 195 193 219 243 260 272 275 282 290 295 309 319 317 314 319 319 323 331 333 337 347 355 353 350 351 348 349 352 351 348 344 345 346 345 348 353
320 302 272 40 55 51 37 26 28 36 34 43 81 102 104 99 144 103 58 83 117 118 144 157 186 277 182 150 135 136 143 147 148 147 146 145 146 148 149 151 150 153 156 158 158 158 161 164 164 165 168 173 173 174 174 185 190 178 176 180 185 194 208 227 242 259 273 275 285 296 301 311 315 308 314 321 316 320 333 337 343 352 357 357 356 355 353 355 356 354 351 349 349 351 354 359 3
287 273 290 49 51 47 35 24 31 37 37 45 90 138 109 110 129 99 101 193 125 141 155 119 148 291 88 113 125 136 143 147 148 148 147 148 149 151 153 154 153 155 159 162 163 161 163 164 165 165 169 173 171 170 168 175 182 169 170 187 205 217 228 239 254 271 281 281 291 302 303 305 301 298 308 314 311 316 324 331 344 354 358 0 357 354 356 360 359 360 358 357 359 4 11 8 359
275 271 10 47 41 42 25 18 32 32 46 46 66 116 110 127 151 144 158 162 129 140 142 119 119 96 105 116 125 137 146 148 150 151 152 154 156 156 156 156 159 159 161 165 166 166 165 165 168 166 169 173 172 170 166 174 177 172 188 209 223 225 237 250 257 267 276 280 291 298 297 292 294 296 300 305 306 310 318 336 355 1 5 4 360 359 4 9 8 9 8 11 13 13 15 5 354
292 315 24 53 30 34 26 13 28 14 47 71 72 112 115 131 155 184 181 151 142 148 138 140 132 117 120 126 133 144 150 151 154 156 157 160 161 161 159 160 163 163 164 168 167 168 166 166 170 168 170 173 173 173 169 174 176 182 198 207 215 222 233 245 249 260 271 277 286 289 286 283 288 291 293 305 315 325 338 354 5 9 8 4 4 4 4 7 11 9 6 10 13 10 8 355 349
316 327 25 51 14 15 50 14 2 7 42 116 105 126 134 138 157 188 188 156 165 174 156 167 153 138 135 136 143 152 154 154 158 161 162 163 163 163 162 163 167 168 169 167 166 170 168 167 169 170 171 173 175 176 174 175 180 190 199 205 215 225 233 244 251 259 268 274 280 278 279 280 286 289 294 314 329 338 341 347 359 6 1 356 358 358 357 360 4 4 360 1 3 1 358 348 347
316 316 4 27 351 355 44 15 342 161 232 125 118 149 144 144 160 176 171 162 186 196 179 186 166 147 145 147 153 157 157 158 161 164 166 165 164 163 164 167 168 168 169 166 167 169 169 168 168 169 171 174 177 177 179 181 186 195 202 211 220 232 240 248 254 259 265 267 270 273 276 281 286 289 294 313 325 332 340 348 357 360 353 352 355 356 3 0 358 1 359 357 355 355 352 349 348
290 279 351 355 336 338 2 356 310 184 204 187 165 156 132 141 169 184 170 171 206 195 186 193 173 154 153 155 158 160 161 160 165 167 168 166 164 163 164 166 165 166 169 167 168 168 169 170 168 169 171 175 178 179 182 185 190 201 209 216 225 236 241 245 253 259 263 262 264 269 275 280 283 288 299 319 331 339 351 357 356 355 352 358 1 1 8 4 360 0 360 357 352 351 350 348 345
284 302 352 342 332 318 324 327 219 193 207 199 183 139 138 152 170 187 178 177 197 170 184 191 170 157 155 157 161 164 163 163 169 168 168 167 166 165 164 165 164 165 169 168 168 168 170 171 170 171 173 176 180 184 185 188 196 205 211 216 226 235 240 247 257 259 259 258 259 264 272 282 287 296 319 338 345 352 355 354 351 352 356 3 5 5 9 6 2 0 359 354 350 352 348 344 341
267 315 339 334 324 306 307 305 230 209 220 196 164 156 168 171 157 179 188 174 136 151 174 174 156 154 158 163 164 165 163 167 172 169 170 170 169 168 165 167 166 165 168 169 168 169 172 172 173 174 175 178 182 187 190 194 199 205 210 216 225 230 240 252 259 260 259 255 253 259 270 282 297 312 338 356 357 357 354 349 347 355 3 7 4 5 9 6 1 358 356 352 352 352 344 342 343
243 312 322 321 314 310 307 295 252 223 222 179 173 175 178 167 131 168 184 167 140 149 160 154 150 156 168 172 166 166 167 170 174 172 174 174 171 171 169 171 168 167 170 171 170 171 174 173 176 179 178 180 183 188 194 196 198 205 211 218 224 228 241 254 259 260 257 254 251 255 269 287 302 320 351 1 1 355 349 347 353 3 7 5 3 4 6 3 357 354 354 352 353 349 342 344 343
342 313 312 312 310 320 321 302 239 210 198 179 181 172 164 143 126 165 163 156 151 152 155 152 155 163 173 177 171 171 171 173 177 176 175 175 174 174 175 175 172 173 172 171 172 173 174 175 180 183 183 183 186 189 193 196 198 207 215 221 225 230 244 252 258 259 255 255 254 257 277 299 307 329 357 355 351 347 349 354 359 1 1 3 1 1 2 360 354 351 352 352 351 347 343 344 339
320 306 304 301 306 333 342 352 162 180 179 188 185 157 157 149 153 186 147 150 153 154 157 156 162 168 173 177 176 178 177 177 179 178 177 176 178 180 179 179 177 176 173 173 174 174 174 177 181 184 186 186 189 191 192 198 202 212 220 226 231 233 244 251 255 258 257 260 264 276 291 303 306 326 342 343 347 344 351 357 360 355 355 1 358 356 358 358 350 347 350 349 348 344 340 340 337
304 302 304 291 247 48 17 83 134 169 168 187 195 150 156 167 180 138 138 151 157 155 158 163 170 169 171 176 176 181 184 180 181 182 182 181 182 185 183 181 180 176 177 177 175 176 176 178 182 184 187 187 193 195 193 203 209 217 223 228 237 237 242 250 255 256 258 265 273 282 287 295 298 312 325 338 343 344 352 354 353 350 351 357 353 351 354 353 345 344 347 347 346 341 340 343 341
295 292 299 244 152 114 43 95 153 183 153 173 190 151 168 189 172 123 139 155 159 158 161 168 174 169 169 175 176 182 187 182 183 187 187 185 185 187 186 183 180 176 178 180 176 179 179 179 183 185 189 190 196 202 200 208 213 217 225 229 236 239 243 249 253 256 259 265 268 270 272 279 288 300 321 336 339 341 347 345 345 347 351 350 346 347 348 348 345 344 345 348 348 344 346 349 347
286 273 278 226 163 125 67 113 167 161 126 170 184 113 168 180 157 136 148 158 161 163 167 171 174 173 173 175 178 180 185 188 188 190 188 186 187 187 187 183 181 178 176 180 180 181 180 179 183 186 192 193 198 206 207 210 215 218 225 231 233 236 244 247 250 253 253 256 255 256 261 264 274 294 319 331 334 337 335 336 341 343 346 341 340 344 345 346 345 344 346 350 351 349 351 351 344
284 258 243 244 152 108 98 137 175 142 130 181 201 342 127 150 146 147 155 162 168 168 169 174 174 177 179 177 181 179 183 195 194 191 188 187 188 187 186 182 182 182 177 183 184 182 184 182 184 188 191 195 198 204 208 212 217 219 221 225 229 233 244 247 247 247 242 244 244 243 250 254 267 287 308 319 324 328 325 329 337 337 338 334 334 339 340 344 341 341 346 345 350 352 348 342 337
278 267 207 308 37 115 118 137 191 41 132 185 223 330 104 135 143 149 161 170 178 176 169 175 177 179 183 181 185 180 181 196 196 192 189 187 188 187 187 184 183 187 183 186 186 184 188 185 186 190 191 196 198 201 207 212 215 217 217 218 224 230 240 246 245 248 244 241 242 241 245 252 264 278 294 308 314 318 318 323 329 330 330 326 328 336 339 341 336 339 343 342 350 350 339 334 334
170 329 8 10 352 76 121 148 166 64 136 186 223 288 55 127 145 150 168 178 184 186 172 175 182 182 184 183 186 184 182 194 197 193 190 188 188 186 188 187 186 189 188 188 187 188 191 188 190 195 193 195 199 200 202 206 209 210 213 216 222 230 238 242 238 242 246 244 245 243 246 254 264 273 286 301 307 312 317 321 326 329 328 325 329 337 340 338 336 337 338 342 349 341 330 331 329
60 348 351 2 341 335 57 129 139 149 204 206 213 244 15 121 148 156 173 185 188 192 180 178 184 185 185 183 188 190 186 194 196 191 189 187 186 185 185 185 186 188 189 191 189 191 193 190 192 196 196 196 197 198 198 202 204 206 213 217 220 230 238 242 240 238 239 239 237 239 253 261 266 275 284 296 305 311 316 319 324 327 327 329 336 340 338 336 334 333 332 339 345 333 325 328 324
346 347 340 334 329 320 355 38 46 279 263 242 210 240 259 143 157 163 175 189 194 193 186 182 183 186 186 183 191 195 190 195 197 191 188 185 184 184 183 181 183 186 189 191 190 190 192 192 191 192 195 196 194 194 196 199 200 203 211 214 216 229 236 238 239 238 235 234 230 235 257 264 267 276 283 292 301 308 311 314 320 325 327 331 339 342 338 332 331 332 333 336 339 331 322 325 327
329 335 320 310 315 311 336 3 17 340 291 256 228 277 266 168 169 170 176 189 200 197 187 185 183 186 188 187 193 194 194 197 196 193 190 187 185 184 182 181 182 186 187 187 187 187 189 190 188 188 192 195 191 190 193 197 198 201 207 211 214 220 225 228 231 233 229 224 222 229 248 258 266 277 284 291 295 301 307 312 317 323 327 332 339 340 334 329 329 333 336 336 335 333 328 328 333
311 311 301 299 295 291 334 7 34 343 305 299 347 302 284 183 177 176 178 187 200 203 192 188 187 188 190 192 194 192 195 196 190 194 195 191 189 185 183 182 182 185 185 183 185 186 187 187 187 187 189 192 191 189 192 195 196 199 204 210 213 208 208 218 224 224 221 212 210 225 241 255 271 281 287 291 294 297 302 309 316 321 326 331 335 333 327 326 328 331 335 335 334 334 334 336 343
299 294 293 288 278 298 356 16 31 343 312 345 6 303 276 170 177 174 180 190 199 205 199 194 191 192 193 194 196 191 192 192 186 193 197 193 192 188 184 184 185 183 182 183 184 183 183 185 187 187 187 189 192 192 192 196 198 199 201 204 213 205 192 206 216 207 205 197 198 223 240 259 278 286 289 292 296 299 302 308 314 317 325 330 327 327 329 329 329 330 333 333 332 335 339 345 353
285 279 277 273 301 328 126 132 93 311 309 330 334 317 6 141 173 175 186 197 200 203 203 202 196 195 197 196 197 193 189 191 190 194 196 195 194 191 187 187 188 184 183 185 184 182 182 184 185 186 186 188 192 194 194 197 198 201 206 202 214 216 187 199 217 198 195 197 198 218 241 266 284 293 292 294 297 301 306 309 313 315 322 325 325 330 332 331 332 332 335 336 334 338 344 351 359
262 265 267 272 342 324 251 126 328 303 296 310 310 302 149 138 173 180 194 203 198 195 199 207 204 200 201 198 196 195 192 193 195 195 196 195 194 193 191 190 190 188 186 187 186 184 186 186 185 185 186 187 191 195 197 198 197 200 211 214 227 257 259 231 226 209 205 212 215 223 238 263 287 303 308 309 302 304 315 313 312 315 318 320 327 332 330 332 336 337 341 343 342 342 346 350 0
248 257 274 296 323 321 323 336 316 297 240 248 298 290 174 160 184 175 181 197 200 195 195 203 207 206 205 200 197 195 196 197 197 198 199 198 196 194 194 193 192 191 190 189 189 188 189 189 187 186 186 186 189 192 195 196 194 197 209 222 232 248 250 227 214 205 200 209 220 222 223 251 293 310 323 331 322 316 324 323 315 311 316 321 327 330 331 335 338 343 348 347 349 350 346 347 359
244 229 324 328 325 319 313 310 306 284 210 158 320 310 171 155 176 164 156 182 202 199 199 204 203 206 206 202 200 196 198 199 197 202 204 204 202 196 194 195 195 195 193 191 192 190 190 190 188 187 187 189 190 191 194 195 197 201 207 215 217 215 216 208 204 203 195 199 207 211 237 272 307 318 330 337 335 327 319 319 317 313 316 322 327 328 331 336 339 352 355 348 352 357 350 349 358
234 81 22 328 316 307 302 305 294 283 311 39 308 310 316 142 146 151 161 181 198 197 205 208 201 204 206 205 204 198 197 196 193 201 206 209 207 199 194 196 198 197 194 191 193 191 189 190 189 189 191 193 194 192 194 198 202 207 212 216 212 206 206 201 203 212 209 206 213 263 273 256 312 330 337 342 338 334 327 315 313 316 319 324 330 329 330 339 347 358 357 354 358 1 360 1 2
300 49 346 309 306 302 304 298 274 299 327 268 224 302 300 266 114 138 174 189 198 200 206 209 204 203 204 205 206 201 199 196 194 200 205 209 210 203 197 197 199 199 196 191 193 192 188 190 190 190 192 195 196 194 194 202 206 208 214 219 219 213 209 197 200 215 225 233 248 264 272 278 335 341 345 354 344 325 322 312 308 314 319 325 331 330 335 351 358 360 359 3 8 9 13 15 11
303 352 318 303 296 293 297 283 266 330 310 261 178 337 294 296 107 139 188 206 212 210 208 207 205 205 203 204 205 203 200 199 198 199 203 207 207 205 201 199 199 199 197 194 193 192 189 190 191 190 192 194 195 194 196 204 209 210 214 219 221 219 216 204 201 211 225 238 251 265 282 291 303 351 353 354 350 329 318 312 307 312 319 326 332 335 350 8 12 14 11 13 16 21 29 28 24
299 316 300 281 265 266 274 273 273 294 281 279 41 355 302 324 113 152 186 216 228 212 206 203 200 202 203 202 202 201 198 198 200 200 203 206 206 206 203 200 200 199 198 196 193 193 190 189 191 191 192 194 195 196 198 205 210 213 217 221 221 219 216 215 211 214 224 235 249 258 256 260 276 319 347 345 345 337 321 318 314 317 326 329 336 350 14 27 28 27 25 28 32 37 43 42 40
291 298 287 266 238 228 247 265 287 278 259 264 21 328 301 302 112 129 137 86 15 99 180 189 190 194 199 201 200 197 194 194 198 201 201 204 206 207 205 202 201 200 198 197 195 195 193 190 190 192 194 195 195 197 201 206 210 214 219 221 222 222 220 219 217 217 219 225 237 243 238 242 269 283 291 316 337 337 325 335 335 332 341 347 5 21 29 30 24 23 28 36 46 54 55 50 48
273 275 276 270 232 217 238 226 229 261 255 163 53 308 284 278 52 36 49 87 76 45 99 168 182 189 193 197 198 195 193 191 194 199 199 201 204 206 206 204 202 200 199 198 197 195 195 193 190 192 194 195 195 198 202 205 209 213 218 219 220 222 222 222 221 218 214 217 223 226 226 242 258 268 277 278 343 352 333 347 351 351 13 25 30 37 38 33 26 25 34 46 56 62 60 53 49
243 244 250 260 240 223 239 224 217 256 259 87 19 301 267 264 38 17 34 79 99 71 62 128 171 183 188 191 194 193 193 191 191 196 196 197 200 202 204 204 202 202 200 199 198 196 196 196 193 192 194 194 195 198 200 203 208 212 215 217 218 217 219 222 223 220 214 212 214 214 215 215 221 241 264 293 356 354 339 347 355 358 27 17 16 54 62 51 43 40 46 62 72 73 66 59 55
209 231 243 251 257 248 244 237 236 254 240 137 71 294 260 214 103 56 55 69 76 85 96 104 144 175 183 186 190 189 191 192 191 194 195 194 196 199 202 203 203 203 203 201 200 198 197 197 197 196 194 194 196 198 200 203 208 212 214 215 216 213 213 217 220 220 214 208 208 212 221 221 216 231 261 328 338 343 347 348 353 349 332 340 25 70 77 60 57 64 69 79 84 80 73 62 59
205 234 275 268 275 267 268 272 253 259 248 158 148 250 266 232 71 63 75 87 96 98 107 121 135 160 173 181 187 189 190 192 190 193 196 193 194 197 200 203 204 204 205 205 202 200 200 200 199 199 197 194 196 198 199 203 209 212 214 215 215 214 213 212 213 216 213 209 209 208 215 234 243 253 293 318 321 345 353 344 16 75 12 26 70 88 89 68 65 79 87 92 92 85 75 66 61
201 220 253 262 294 277 284 304 301 306 289 219 179 218 269 9 38 58 117 127 128 128 125 139 150 151 161 176 184 190 193 192 191 192 195 193 191 195 199 203 205 205 206 207 205 203 203 202 201 201 200 197 197 198 201 207 211 212 212 214 215 214 214 212 208 209 210 211 215 213 211 224 241 255 253 265 307 344 355 5 91 109 90 89 101 106 104 84 76 91 99 99 97 89 79 71 61
181 228 234 258 358 294 282 265 275 287 267 218 179 218 201 151 110 93 122 145 140 147 142 135 145 153 163 176 183 190 195 194 194 192 194 194 191 193 197 202 205 205 206 207 207 206 204 204 203 202 203 203 200 200 204 209 211 211 212 213 215 213 213 215 211 207 208 210 215 219 217 219 227 232 229 235 277 317 321 105 131 125 114 118 119 115 110 93 87 101 108 106 102 94 84 72 60
255 254 303 60 252 267 276 260 238 246 242 201 155 216 268 160 126 100 116 134 122 121 121 123 143 161 172 178 179 188 196 197 198 196 195 196 194 193 195 199 202 203 205 207 208 209 207 206 205 204 205 206 202 202 207 210 209 210 212 212 213 213 212 214 215 212 211 210 210 214 219 222 222 218 218 240 256 279 297 229 148 141 137 137 130 124 117 98 99 113 114 111 109 103 90 75 65
253 292 342 296 248 236 236 252 254 246 244 207 151 125 327 82 97 108 109 87 96 102 107 121 137 154 169 173 171 181 193 198 200 200 197 197 197 197 197 199 201 203 206 209 211 213 212 209 208 208 207 207 204 203 207 210 209 210 212 212 211 211 212 213 213 215 216 213 211 213 217 219 221 218 213 235 248 229 226 202 162 155 153 150 138 132 122 104 110 120 117 115 113 106 94 83 72
229 265 261 242 264 274 236 239 258 262 262 220 165 144 153 57 38 81 93 64 80 91 89 85 91 120 143 151 160 171 185 196 202 204 201 199 200 201 200 201 203 204 206 208 211 213 213 211 208 208 209 207 204 204 206 209 210 210 211 211 209 207 209 209 207 212 218 216 215 215 215 216 219 220 215 224 238 227 216 196 173 164 157 150 141 133 124 117 122 126 122 121 119 111 101 89 80
204 225 225 215 209 232 246 245 253 277 284 238 180 195 169 60 3 310 92 60 52 67 70 69 65 84 114 126 147 160 176 188 199 209 208 204 204 204 204 203 204 205 204 206 209 209 211 211 208 207 208 206 203 204 204 205 208 211 211 210 207 204 203 202 202 210 219 220 218 216 216 217 217 214 213 221 230 229 221 197 178 171 162 156 150 139 131 127 128 129 128 127 124 118 108 98 89
241 227 222 222 206 199 236 235 215 240 271 268 234 218 156 52 342 243 103 73 59 65 62 62 61 65 89 120 141 149 170 182 190 207 213 209 209 209 208 205 205 206 205 205 208 209 209 208 205 204 204 205 205 201 200 204 206 208 211 210 206 201 197 199 204 210 217 219 218 217 217 217 216 213 212 219 227 228 220 198 182 174 165 167 169 150 136 135 135 134 132 130 129 125 117 111 102
Height
796 798 799 799 798 800 798 798 809 800 795 803 790 798 809 800 801 802 805 805 805 804 798 800 799 799 802 801 802 801 801 805 809 815 820 813 807 811 812 815 818 821 824 826 829 831 832 834 835 836 838 839 840 841 842 842 843 844 844 845 845 846 846 847 847 848 848 848 849 848 848 848 848 847 847 847 847 847 847 848 848 848 848 848 849 849 848 849 847 845 841 837 838 839 836 833 833
798 799 799 800 798 801 798 796 810 799 795 806 794 800 807 799 802 802 804 805 806 803 798 800 800 801 799 795 795 800 804 802 801 805 808 806 808 812 813 817 819 821 824 827 829 831 833 835 836 837 838 840 841 842 843 843 844 844 845 845 846 846 847 847 848 848 849 849 849 849 849 848 848 848 848 848 848 848 848 848 848 848 848 849 849 849 849 849 848 845 838 836 838 837 834 832 832
799 800 799 800 798 798 798 799 807 802 804 810 800 800 801 802 806 803 801 802 802 799 799 802 803 803 801 801 801 805 809 802 799 802 805 806 808 812 815 817 820 823 825 827 830 832 834 835 837 838 839 841 842 842 843 844 844 845 845 846 846 846 847 848 848 849 849 849 849 849 849 849 849 849 849 849 848 848 848 848 848 848 848 849 849 849 849 849 848 844 837 837 838 835 833 832 831
799 800 799 800 802 802 804 803 800 801 808 808 802 799 797 804 806 803 802 801 800 799 802 803 806 804 802 808 803 804 809 802 799 802 805 807 807 811 815 818 821 823 825 828 830 833 834 836 837 838 840 841 842 843 843 844 845 845 846 846 846 847 848 848 849 849 849 850 850 850 850 850 850 850 850 850 849 849 849 849 848 848 848 848 848 849 849 850 849 843 838 839 838 835 834 832 831
799 800 798 799 805 805 803 801 795 799 807 803 801 800 798 803 804 804 801 801 801 801 803 803 809 804 801 804 801 805 807 802 800 800 804 807 809 812 815 818 821 823 826 828 830 833 834 836 838 839 840 841 842 843 844 845 845 846 846 847 847 848 848 849 850 850 850 850 850 851 851 851 851 851 851 850 850 849 849 849 848 848 848 848 848 848 848 850 850 844 840 840 837 836 834 832 831
799 799 797 797 800 799 800 801 799 802 803 798 802 801 799 802 803 802 800 801 801 800 801 803 808 804 805 802 798 802 802 802 802 800 803 806 810 813 816 819 822 824 826 828 831 833 834 836 838 839 840 841 843 843 844 845 846 847 847 848 848 848 849 850 850 851 851 851 851 851 851 852 852 851 851 851 850 849 849 849 848 848 848 848 848 848 848 849 850 845 841 840 838 836 834 832 831
798 800 797 798 797 796 801 801 800 803 800 797 802 801 798 802 801 800 801 804 803 801 801 803 802 803 809 803 802 803 800 803 800 801 804 806 811 814 817 819 822 825 827 829 831 833 835 836 838 840 841 842 843 844 845 845 847 847 848 848 849 849 850 850 851 851 851 852 852 852 852 852 852 852 851 851 850 849 849 848 848 848 847 847 847 847 847 847 849 845 840 839 838 836 834 832 832
798 799 794 800 800 795 797 798 799 800 799 797 800 799 798 800 798 799 801 803 805 803 804 803 799 806 810 802 806 806 801 804 801 803 805 807 812 815 818 819 822 825 827 830 831 833 835 837 839 841 842 843 843 844 845 846 847 848 849 849 850 850 850 851 851 852 852 852 852 853 853 852 852 852 851 851 850 849 849 848 848 848 847 847 847 846 846 846 847 846 840 838 837 836 834 833 833
797 796 793 799 798 794 796 798 802 799 797 798 800 799 797 797 796 797 799 802 802 803 806 802 799 808 809 803 808 804 801 805 803 805 807 809 812 815 819 820 823 825 828 830 832 834 835 838 840 841 843 843 844 845 846 847 848 849 850 850 850 851 851 852 852 852 852 853 853 853 853 852 852 851 851 850 850 849 848 848 847 847 847 846 846 845 845 844 844 844 841 839 837 836 835 834 834
795 794 795 798 794 796 799 800 805 801 797 798 800 798 796 795 794 796 799 803 801 803 804 798 800 806 805 807 809 803 804 806 804 807 808 811 813 816 819 821 824 825 828 830 832 834 836 839 840 843 843 844 845 846 847 848 849 849 850 850 851 851 851 852 852 853 852 853 853 853 852 852 852 851 850 849 849 848 848 847 847 846 846 845 845 844 843 843 842 841 840 839 837 835 834 834 834
797 792 793 798 795 799 803 803 804 801 797 797 800 798 796 794 794 796 800 804 802 802 802 799 804 804 804 808 809 805 805 806 805 807 810 813 815 818 820 822 825 826 829 830 833 835 837 840 841 843 844 845 846 846 848 848 849 850 850 850 851 851 852 852 852 853 852 852 852 852 852 851 851 850 849 849 848 848 847 846 846 845 845 844 843 843 842 841 840 839 838 837 836 834 833 833 833
802 796 792 799 800 801 803 804 805 803 800 800 805 800 795 794 795 797 800 803 802 804 803 801 802 800 807 811 807 806 805 806 807 808 811 814 816 819 821 823 825 827 829 830 833 835 837 840 841 843 844 846 846 847 848 849 850 850 851 851 851 851 852 852 852 852 852 852 852 852 851 851 850 849 849 848 848 847 846 846 845 844 844 843 842 842 841 840 839 838 837 836 834 833 832 832 832
801 799 795 801 800 801 801 803 804 805 804 804 807 801 795 797 797 795 796 800 802 805 803 799 797 798 808 810 806 806 806 807 807 809 812 814 817 819 822 824 826 828 829 831 833 835 838 840 842 843 845 846 847 848 848 849 850 850 850 851 851 852 852 852 852 853 852 852 852 851 851 850 849 849 848 847 847 846 846 845 844 844 843 842 841 841 840 839 839 837 836 835 833 831 830 830 830
797 797 799 802 797 798 801 803 804 807 808 802 802 799 796 798 797 793 796 803 804 803 801 796 795 801 807 810 810 807 807 808 808 810 812 815 818 820 822 824 826 828 830 832 833 836 838 840 842 843 845 846 847 848 848 849 849 850 850 850 851 851 852 852 852 853 852 852 852 851 851 850 849 848 848 847 846 846 845 844 843 843 842 841 840 840 840 839 838 837 836 834 832 830 828 827 827
796 797 798 799 799 801 803 804 804 810 810 799 799 798 797 798 794 795 797 804 806 798 798 796 795 805 807 809 812 805 805 808 808 811 813 816 818 820 823 825 827 828 830 832 834 836 837 840 841 843 845 846 847 848 849 848 849 849 850 851 851 851 852 852 852 853 852 852 851 851 850 849 849 848 847 847 846 845 844 844 843 842 841 841 840 840 839 839 838 837 835 833 831 830 828 826 825
793 798 798 799 804 808 806 802 804 813 809 798 798 796 799 799 793 798 796 797 804 797 798 800 797 802 802 802 805 801 804 807 808 811 813 817 819 821 823 825 827 828 831 832 834 836 837 839 841 843 844 846 847 848 849 849 849 849 850 851 851 851 852 852 852 852 852 852 851 851 850 849 849 848 847 846 846 845 844 843 843 842 841 841 840 840 839 838 837 836 835 833 831 829 827 825 824
793 800 802 801 804 808 807 803 807 812 805 798 797 796 802 803 795 795 793 792 800 800 799 799 796 796 798 799 800 801 804 807 809 811 813 817 819 821 823 825 827 828 831 832 834 836 837 839 840 842 844 845 847 847 849 849 849 849 850 851 851 851 851 852 852 852 852 851 851 850 850 849 849 848 847 846 846 845 844 843 843 842 842 841 840 839 838 837 836 835 834 833 831 829 827 825 824
797 801 802 804 804 804 804 801 801 801 800 800 798 796 800 803 800 795 794 797 799 801 800 799 797 795 797 799 800 803 805 806 809 811 813 816 817 819 822 824 826 828 830 832 834 836 837 839 840 842 843 845 846 847 849 849 850 850 851 851 851 851 851 852 852 852 852 851 851 850 849 849 848 848 847 846 845 845 844 843 843 842 842 841 840 838 837 837 836 835 834 832 831 829 827 826 825
800 800 800 804 802 798 796 795 796 795 799 800 797 796 797 800 799 795 799 803 801 805 805 801 802 800 799 800 802 804 805 807 809 810 813 814 815 817 820 823 825 827 830 832 834 835 837 839 840 842 843 845 846 847 848 849 850 850 851 851 851 851 851 852 852 852 851 851 850 850 849 849 848 847 846 846 845 844 843 843 843 842 841 840 839 838 837 836 835 834 833 832 830 829 828 826 825
798 800 803 802 797 794 791 792 794 793 795 798 799 796 796 797 795 796 800 803 803 806 807 805 806 804 803 802 803 805 804 807 808 810 812 813 815 816 818 822 824 827 829 831 833 835 837 838 840 842 843 844 846 847 848 849 849 850 850 851 851 851 851 851 851 851 851 850 850 849 849 848 848 847 846 845 844 844 843 843 842 841 841 840 839 838 837 836 835 834 833 831 830 828 828 826 824
798 799 803 798 793 795 791 790 791 790 792 795 798 797 798 796 794 797 799 804 807 804 803 803 802 802 803 802 802 804 804 806 808 810 811 812 814 816 818 820 823 826 828 830 832 834 836 838 839 841 843 844 845 846 847 848 849 850 850 850 851 851 851 851 851 851 850 850 849 849 848 848 847 847 846 845 845 844 844 843 842 842 841 840 839 838 837 836 835 834 832 831 829 828 826 825 824
800 796 795 793 791 796 791 787 789 789 791 794 797 798 798 796 797 798 798 807 806 798 796 796 795 797 800 802 802 803 804 806 808 809 810 811 813 815 818 820 822 826 827 830 832 834 836 837 839 840 842 843 845 846 847 848 848 849 849 850 850 850 850 850 850 850 850 849 848 848 848 847 847 846 846 845 845 844 843 843 842 841 840 839 839 838 837 836 835 833 832 831 829 827 826 825 823
803 796 790 790 790 794 789 785 789 788 792 796 796 795 793 798 803 798 799 806 798 790 791 792 793 794 797 800 801 802 803 805 806 808 809 811 813 815 817 820 822 825 827 829 831 834 835 837 839 840 841 843 844 845 846 847 847 848 849 849 849 850 850 849 849 849 849 848 848 848 847 847 846 846 845 845 845 844 843 842 841 841 840 839 838 837 837 836 835 833 832 831 829 827 826 824 823
803 800 792 790 788 790 787 784 786 787 791 792 790 792 794 799 803 799 800 800 792 789 790 790 793 794 797 799 800 801 802 804 806 807 809 810 813 815 817 820 822 824 827 829 831 833 834 836 838 839 841 842 843 844 845 846 847 848 848 849 849 849 849 849 848 848 848 847 847 847 847 847 846 845 845 845 844 844 843 842 841 840 839 839 838 837 836 835 834 833 832 830 828 827 825 824 822
801 801 793 789 787 786 782 781 784 786 788 788 789 794 796 794 795 798 798 795 791 791 790 792 795 797 799 799 799 801 801 804 806 807 809 810 813 815 818 819 821 824 826 828 830 832 833 835 837 839 840 841 843 844 845 845 846 847 847 848 848 848 848 848 847 847 847 847 847 847 847 846 846 845 845 845 844 844 843 842 841 840 840 839 838 837 836 835 834 833 831 829 828 827 824 823 821
798 797 792 790 788 783 782 783 785 787 787 789 793 797 795 791 794 798 795 792 792 791 793 795 797 800 801 801 800 800 801 803 805 807 808 810 813 815 817 819 820 823 825 827 829 831 833 834 836 838 839 841 842 843 844 845 845 846 847 847 847 847 847 847 846 846 846 846 846 846 846 846 846 845 845 845 844 844 843 842 841 840 840 839 838 837 836 835 834 833 831 829 827 826 824 822 820
792 791 789 788 787 784 784 786 786 787 789 790 794 798 794 790 797 802 794 790 792 793 797 797 799 802 801 801 801 801 802 803 805 807 808 810 813 815 816 818 820 821 824 826 828 830 832 834 835 837 839 840 841 842 843 844 845 845 846 846 846 846 846 846 846 845 845 845 845 846 846 846 846 845 845 845 844 844 843 842 841 840 840 839 838 837 836 836 834 833 831 829 828 826 824 822 820
788 788 789 786 786 787 786 788 789 789 791 789 791 796 795 794 799 800 792 790 792 796 800 799 800 801 801 802 802 802 803 803 806 806 808 810 811 814 815 817 819 821 823 825 827 829 831 833 834 836 838 839 840 841 842 843 844 844 845 845 845 845 845 845 845 845 845 845 845 846 846 846 846 845 845 845 844 844 843 842 841 841 840 839 839 837 837 836 835 833 831 829 828 826 824 822 820
785 786 793 789 787 792 789 788 790 789 793 788 789 800 801 799 799 793 789 790 792 797 801 801 801 801 802 802 802 803 803 804 805 806 807 809 811 813 814 816 818 820 822 824 826 828 830 832 834 835 837 838 840 840 841 842 843 843 844 844 844 844 845 844 844 844 844 845 845 845 846 846 846 845 845 845 844 844 843 842 841 841 840 839 839 838 837 836 834 833 831 829 828 827 824 823 821
785 785 792 791 793 799 790 788 789 789 794 786 793 814 808 797 794 788 787 790 794 799 801 801 802 802 802 802 803 803 804 804 804 805 806 808 810 812 813 815 817 819 821 823 825 827 829 831 833 834 836 837 839 840 841 841 842 843 843 843 844 844 844 844 843 844 844 844 845 845 845 846 845 845 845 845 844 844 843 842 841 841 840 840 839 838 837 835 834 832 831 830 830 829 826 825 823
785 790 791 787 798 805 790 786 789 791 794 785 797 819 809 795 792 787 787 789 794 799 801 801 803 803 802 803 803 804 804 805 804 804 806 808 809 811 812 814 816 818 820 822 824 826 828 830 832 833 835 837 838 839 840 841 842 842 842 843 843 843 843 843 843 843 843 844 844 844 845 845 845 845 845 844 844 843 842 841 841 841 840 840 839 838 837 836 834 833 832 831 831 831 828 825 824
785 795 799 789 794 801 791 786 785 790 793 786 797 810 802 796 793 788 788 790 793 797 799 801 802 803 803 803 803 804 805 804 803 804 806 807 809 810 812 813 816 818 819 821 823 825 827 829 831 832 834 836 837 838 839 840 841 841 842 842 842 843 843 843 843 843 843 843 843 844 844 844 845 845 844 844 844 843 842 841 841 840 840 839 838 837 837 836 834 833 832 831 832 831 827 824 823
787 794 803 797 794 796 793 789 781 783 790 790 796 800 798 796 791 788 789 790 794 796 797 800 802 802 803 803 803 804 805 804 803 803 805 807 808 810 811 813 815 817 818 820 822 824 826 827 830 831 833 835 836 837 839 839 840 841 841 842 842 842 842 842 842 842 843 843 843 843 843 844 844 844 844 844 844 843 842 841 840 840 839 838 838 837 836 835 834 832 831 832 832 829 825 823 823
797 796 800 798 795 794 793 792 781 778 786 789 792 794 793 792 788 789 791 791 794 796 797 799 801 802 802 803 804 804 805 805 802 801 803 805 807 809 811 812 814 816 818 819 821 823 825 826 829 830 832 834 835 836 838 839 840 841 841 841 842 842 842 842 842 842 842 842 842 843 843 843 843 843 843 843 843 843 842 841 840 839 838 837 837 836 835 835 834 833 831 831 830 827 824 822 821
810 807 805 801 796 792 792 791 781 777 783 786 790 792 789 789 787 788 790 791 794 795 795 797 799 802 802 803 805 804 804 805 801 800 802 804 806 808 810 812 814 815 817 818 820 822 824 826 827 830 831 833 834 836 837 838 839 840 840 840 841 841 841 841 842 842 842 842 842 842 843 843 843 843 843 843 843 842 841 840 839 838 837 837 836 836 835 834 833 833 831 830 828 826 824 822 819
810 807 808 807 800 794 788 784 777 775 783 784 785 788 785 787 789 787 789 790 793 794 793 796 799 801 802 803 804 803 804 803 800 800 802 803 805 808 809 811 813 814 816 818 820 822 823 825 827 829 831 832 834 835 836 837 838 839 839 839 840 840 841 841 841 841 841 841 841 842 842 842 843 843 843 842 842 841 840 840 838 838 837 836 836 836 835 834 833 832 831 830 828 825 823 821 818
804 805 805 802 798 794 783 780 775 772 783 782 779 784 781 783 786 785 787 789 793 794 794 796 798 799 801 802 802 802 803 801 799 801 802 803 804 806 809 810 812 814 815 817 819 820 822 824 826 827 829 831 832 834 835 836 837 837 838 838 838 838 840 840 841 841 841 841 841 842 842 843 843 842 842 842 841 840 840 839 838 837 837 836 836 835 835 834 833 832 831 830 827 824 822 819 818
802 803 803 797 793 789 780 780 777 772 783 783 776 781 781 780 784 782 784 789 793 792 794 796 795 797 799 800 801 800 801 799 798 800 800 801 803 805 808 809 811 813 814 816 818 819 821 823 825 826 828 830 831 833 834 835 835 836 836 836 837 837 838 839 839 840 840 840 841 842 842 842 842 842 842 841 840 840 839 839 838 837 837 836 836 835 835 834 833 832 831 829 826 824 821 819 818
801 798 799 797 788 784 781 779 776 773 781 783 778 780 781 780 781 781 782 786 788 786 789 791 792 796 797 798 800 799 800 800 798 799 799 800 801 803 806 808 809 811 813 815 817 819 820 822 824 825 827 828 830 832 833 834 835 835 836 836 837 836 837 838 839 839 840 840 841 842 842 842 842 842 841 840 840 839 839 838 838 837 837 837 836 836 835 834 833 832 830 828 826 824 821 820 820
797 794 796 796 786 788 791 783 777 774 777 783 783 781 781 783 784 783 782 781 782 783 785 787 788 792 794 793 796 798 800 801 799 798 797 798 799 801 803 806 808 809 811 813 815 817 819 821 823 824 826 827 829 831 832 833 834 835 836 836 837 838 838 839 839 840 840 841 841 841 841 842 841 841 841 840 840 839 839 838 838 838 837 837 837 836 835 834 833 832 830 829 826 824 822 820 820
791 789 792 793 787 788 790 783 777 774 775 780 782 783 783 784 788 787 782 781 783 784 785 788 788 788 789 790 792 795 797 798 799 798 796 796 797 799 801 804 806 807 809 811 813 815 817 819 821 823 825 827 828 830 832 833 834 835 836 837 838 838 838 839 839 839 840 840 841 840 840 841 841 841 840 840 840 839 839 838 838 838 837 837 837 836 835 834 833 833 831 829 827 826 824 822 821
792 786 786 788 788 787 785 782 781 787 790 780 781 798 796 782 784 786 783 785 787 786 786 788 788 787 788 790 790 792 794 795 797 797 796 795 795 797 799 802 804 805 807 809 811 813 816 817 820 822 824 826 827 829 831 832 833 834 835 836 837 837 837 838 838 838 838 839 839 839 840 840 841 841 840 840 839 839 839 838 838 838 838 838 837 837 836 834 833 832 831 830 828 828 826 824 822
796 786 782 783 785 786 785 783 786 796 798 779 777 802 803 786 784 784 782 788 787 786 788 787 786 787 787 788 788 789 791 792 795 796 795 796 795 794 797 800 802 803 805 807 809 811 814 816 818 820 822 824 826 828 830 831 832 833 834 835 835 835 836 836 837 837 837 837 838 839 840 840 840 840 840 840 839 839 839 838 838 838 838 838 837 837 835 834 833 833 832 831 829 829 827 826 824
796 782 780 784 784 786 785 783 786 787 787 779 774 788 799 794 789 782 779 787 788 785 787 785 783 785 785 786 786 786 788 789 791 794 795 795 794 792 794 797 799 801 802 804 807 808 811 814 816 818 821 823 825 827 828 830 831 832 833 834 834 834 834 835 837 837 838 838 839 839 839 838 839 840 840 839 839 839 838 838 838 837 837 837 837 836 835 834 834 833 832 831 830 829 828 827 827
790 776 779 782 782 784 780 780 782 780 787 793 780 781 798 797 783 780 781 785 788 785 783 782 781 781 782 783 783 783 784 785 787 790 791 791 791 791 793 795 797 799 800 802 804 806 809 812 815 817 819 822 823 825 827 828 830 831 832 833 834 834 834 835 836 837 838 839 839 839 839 838 838 839 839 839 838 838 838 838 837 837 837 837 836 836 835 834 834 833 832 832 831 830 830 829 828
781 775 779 777 776 778 778 779 779 782 797 803 786 783 800 799 779 778 786 785 780 776 773 774 775 776 777 777 778 779 780 783 784 786 787 788 789 791 791 793 795 797 798 800 802 804 807 809 812 815 817 820 822 824 826 827 829 830 831 832 833 834 834 835 836 837 838 838 839 839 838 838 838 838 838 838 838 837 837 837 837 837 837 836 836 835 835 835 834 834 833 832 831 831 831 830 829
777 778 780 776 774 774 778 778 778 795 806 797 785 783 796 802 782 769 776 775 766 764 766 768 769 772 774 773 773 774 776 780 783 783 785 787 789 790 790 791 793 795 796 799 801 802 805 807 810 813 816 818 820 822 824 825 827 829 830 831 832 833 834 835 835 836 837 837 838 837 837 837 837 837 837 837 837 837 837 837 836 836 836 836 836 836 835 836 835 834 834 832 832 832 831 831 830
780 783 783 785 784 781 787 785 787 811 813 791 781 780 791 804 788 764 761 759 755 759 762 764 767 770 771 771 770 770 771 776 779 782 783 785 788 789 789 790 791 793 795 796 799 801 803 805 807 811 814 816 818 820 822 824 826 827 828 830 831 832 833 834 834 835 835 836 836 836 836 837 837 836 836 836 836 837 837 836 836 836 836 836 836 836 836 836 836 835 834 834 833 833 832 832 832
783 784 786 798 802 802 809 805 802 812 804 784 779 784 793 795 777 761 758 755 753 755 755 757 760 764 767 768 768 768 768 771 775 778 781 783 785 786 787 789 790 791 793 795 797 798 801 803 805 809 812 814 816 818 820 822 823 825 826 828 829 830 832 833 833 834 834 835 835 835 835 836 836 836 835 835 835 836 836 836 836 836 836 835 835 836 836 836 836 835 835 834 834 834 834 833 833
783 783 787 800 808 819 827 816 811 812 797 780 777 787 796 787 768 758 756 755 752 750 751 752 754 757 762 764 764 765 766 768 771 774 777 779 781 783 785 787 788 790 791 793 794 796 799 801 803 806 809 811 814 816 818 819 821 823 824 826 827 828 830 831 832 833 833 833 834 834 834 834 834 834 834 835 836 836 836 836 836 835 835 835 835 835 836 835 836 835 835 835 835 835 835 834 834
774 770 778 791 796 811 822 814 813 812 797 785 785 794 798 788 770 755 750 751 749 748 749 750 752 752 756 759 761 764 765 766 768 770 773 775 778 781 783 785 787 788 790 791 793 795 796 799 801 804 807 809 811 813 816 817 819 821 822 824 826 827 828 829 830 831 831 832 832 833 833 834 834 834 834 836 836 836 836 835 835 835 834 834 835 835 836 836 835 835 835 835 835 836 835 835 835
773 765 779 789 781 787 799 800 800 800 800 795 790 790 781 768 758 747 747 751 748 750 750 750 755 753 754 760 761 763 764 763 765 768 770 771 774 779 781 783 785 786 788 789 790 792 794 797 799 802 805 807 809 811 813 815 817 819 820 822 824 825 826 827 828 830 830 831 831 831 832 834 834 834 835 835 836 835 835 835 835 835 834 835 835 836 836 836 835 835 835 836 836 837 836 836 836
778 776 782 776 765 774 791 799 793 795 811 803 787 786 774 764 763 751 749 754 751 752 752 752 756 755 757 761 760 761 762 760 762 764 766 768 770 775 777 780 782 783 786 787 788 790 792 794 797 800 802 804 807 809 811 813 815 817 818 820 822 823 824 825 826 828 829 830 831 831 832 832 833 834 834 834 835 835 834 835 835 835 834 835 835 835 836 836 836 836 836 836 837 837 837 837 836
780 784 774 764 767 774 785 802 806 807 818 804 786 792 787 783 784 763 753 759 756 754 754 754 756 757 759 760 759 760 759 758 760 760 763 765 767 771 774 776 779 781 784 785 787 788 789 792 795 797 800 802 804 807 809 811 812 814 816 817 820 821 822 824 824 826 827 828 830 830 831 831 832 833 833 834 834 834 834 834 834 834 834 835 835 835 835 835 836 836 836 837 837 837 838 837 837
771 773 764 770 790 795 791 806 816 816 821 809 793 794 789 786 783 768 762 763 758 757 757 756 757 757 758 757 758 760 758 758 759 759 761 763 765 769 771 773 776 779 782 784 785 787 787 790 792 794 797 799 802 805 806 809 810 812 814 815 817 819 820 822 823 825 826 826 828 828 829 831 831 832 833 833 834 834 834 833 834 834 834 834 834 834 835 835 836 836 837 837 837 838 838 838 838
766 768 765 770 784 793 792 796 801 807 817 815 807 804 795 781 770 765 765 760 756 758 758 756 756 754 755 755 755 758 759 759 759 758 759 760 762 766 768 771 774 776 779 781 783 785 785 787 790 792 795 797 800 802 804 806 808 810 811 813 815 817 819 820 822 824 825 825 826 827 828 829 830 831 832 833 833 833 833 833 834 834 834 834 834 835 835 835 836 836 837 837 838 838 839 839 839
774 777 778 776 776 781 786 788 786 795 810 813 816 818 799 773 761 760 762 759 755 755 756 756 754 751 752 753 753 756 758 759 759 758 757 758 760 763 765 768 771 773 776 778 780 781 782 785 787 790 793 795 798 800 802 804 806 808 810 811 813 815 817 819 820 822 823 824 825 825 826 828 829 830 831 832 832 832 833 833 834 834 834 834 834 835 835 835 836 836 837 837 838 839 839 839 839
768 772 773 774 776 784 800 805 790 787 799 802 809 818 797 768 760 758 757 759 755 751 754 755 753 752 753 752 752 755 756 757 758 757 756 756 758 760 762 765 768 770 773 775 777 778 779 782 784 788 791 793 796 798 800 802 804 806 808 809 811 813 815 817 818 820 821 822 823 824 825 826 827 829 830 831 831 832 832 832 833 834 834 834 834 834 835 835 836 836 836 838 838 839 840 840 840